Regional Weather Roundup
Issued by NWS

Home | Current Version | Previous Version | Text Only | Print | Product List | Glossary On
Versions: 1 2 3 4 5 6 7 8 9 10 11 12 13 14 15 16 17 18 19 20 21 22 23 24 25 26 27 28 29 30 31 32 33 34 35 36 37 38 39 40 41 42 43 44 45 46 47 48 49 50
000
ASUS43 KFSD 020202
RWRSD

WEATHER ROUNDUP FOR SOUTH DAKOTA
NATIONAL WEATHER SERVICE SIOUX FALLS SD
900 PM CDT SUN MAY 01 2016

NOTE: "FAIR" INDICATES FEW OR NO CLOUDS BELOW 12,000 FEET WITH NO
SIGNIFICANT WEATHER AND/OR OBSTRUCTIONS TO VISIBILITY.


SDZ001>005-009-010-012>017-020300-
NORTHWEST AND NORTH CENTRAL SOUTH DAKOTA

CITY           SKY/WX    TMP DP  RH WIND       PRES   REMARKS
BUFFALO          N/A     54  31  41 NW9       30.14S
FAITH            N/A     54  28  36 E3        30.19S
MOBRIDGE       CLEAR     52  35  52 N5        30.16S
$$

SDZ012>016-024>037-041>051-057-063-072>074-020300-
SOUTHWEST AND SOUTH CENTRAL SOUTH DAKOTA

CITY           SKY/WX    TMP DP  RH WIND       PRES   REMARKS
RAPID CTY ARPT CLEAR     45  32  60 N6        30.21S
PIERRE         CLEAR     49  34  56 NW8       30.17S
CUSTER         MOCLDY    43  26  51 E7G18     30.24R
PHILIP         CLEAR     51  33  50 E6        30.20R
PINE RIDGE     CLEAR     46  31  55 NE5       30.22R
WINNER         FAIR      48  35  60 N8        30.20R
$$

SDZ004>011-016>023-039-040-020300-
NORTHEAST SOUTH DAKOTA

CITY           SKY/WX    TMP DP  RH WIND       PRES   REMARKS
ABERDEEN       CLEAR     55  34  45 NW6       30.16S
WATERTOWN      CLEAR     50  32  50 N7        30.15R
BROOKINGS      CLEAR     51  33  50 N5        30.14S
SISSETON         N/A     55  32  41 CALM      30.13F
$$

SDZ017-020-022-023-036>040-048>070-020300-
SOUTHEAST SOUTH DAKOTA

CITY           SKY/WX    TMP DP  RH WIND       PRES   REMARKS
SIOUX FALLS    PTCLDY    48  36  63 N6        30.14R
HURON          CLEAR     53  34  48 NE3       30.16S
MITCHELL       CLEAR     52  39  61 N6        30.17R
YANKTON        CLEAR     52  37  58 NW5       30.15S
$$

ABBREVIATIONS USED IN REMARKS
   TC - TEMPERATURE IN CELSIUS
  WCI - WIND CHILL INDEX
   HX - HEAT INDEX
  VSB - VISIBILITY





USA.gov is the U.S. government's official web portal to all federal, state and local government web resources and services.